Wetterdaten: aktuell Dienstag, 01.09.2026 22:03
Datum Zeit Temp. A. Feuchte A. Luftdruck Regen Wind Richtung Richtung Taupunkt Windchill
01.09.2026 22:03 20,1 °C 44 % 1014,1 hPa 0,0 l/m² 0,0 km/h (0 Bft) N 355 ° 7,5 °C 20,1 °C
01.09.2026 22:01 20,1 °C 44 % 1014,1 hPa 0,0 l/m² 0,0 km/h (0 Bft) N 355 ° 7,5 °C 20,1 °C
01.09.2026 21:59 20,1 °C 44 % 1013,1 hPa 0,0 l/m² 0,0 km/h (0 Bft) N 355 ° 7,5 °C 20,1 °C
01.09.2026 21:57 20,1 °C 43 % 1013,1 hPa 0,0 l/m² 0,0 km/h (0 Bft) N 355 ° 7,1 °C 20,1 °C
01.09.2026 21:54 20,2 °C 43 % 1013,1 hPa 0,0 l/m² 0,0 km/h (0 Bft) N 355 ° 7,2 °C 20,2 °C
01.09.2026 21:52 20,2 °C 43 % 1013,1 hPa 0,0 l/m² 0,0 km/h (0 Bft) N 355 ° 7,2 °C 20,2 °C
01.09.2026 21:50 20,2 °C 43 % 1013,1 hPa 0,0 l/m² 0,0 km/h (0 Bft) N 355 ° 7,2 °C 20,2 °C
01.09.2026 21:48 20,2 °C 42 % 1013,1 hPa 0,0 l/m² 0,0 km/h (0 Bft) N 355 ° 6,9 °C 20,2 °C
01.09.2026 21:46 20,2 °C 42 % 1013,1 hPa 0,0 l/m² 0,0 km/h (0 Bft) N 355 ° 6,9 °C 20,2 °C
01.09.2026 21:45 20,2 °C 42 % 1013,1 hPa 0,0 l/m² 0,0 km/h (0 Bft) N 355 ° 6,9 °C 20,2 °C
01.09.2026 21:43 20,3 °C 42 % 1013,1 hPa 0,0 l/m² 0,0 km/h (0 Bft) N 355 ° 7,0 °C 20,3 °C
01.09.2026 21:41 20,3 °C 42 % 1013,1 hPa 0,0 l/m² 0,0 km/h (0 Bft) N 355 ° 7,0 °C 20,3 °C
01.09.2026 21:39 20,3 °C 43 % 1013,1 hPa 0,0 l/m² 0,0 km/h (0 Bft) N 355 ° 7,3 °C 20,3 °C
01.09.2026 21:37 20,3 °C 42 % 1013,1 hPa 0,0 l/m² 0,0 km/h (0 Bft) N 355 ° 7,0 °C 20,3 °C
01.09.2026 21:35 20,3 °C 42 % 1013,1 hPa 0,0 l/m² 2,1 km/h (1 Bft) N 355 ° 7,0 °C 20,3 °C
01.09.2026 21:33 20,4 °C 42 % 1013,1 hPa 0,0 l/m² 0,9 km/h (0 Bft) NW±22.5° 325 ° 7,1 °C 20,4 °C
01.09.2026 21:31 20,4 °C 41 % 1013,1 hPa 0,0 l/m² 0,9 km/h (0 Bft) NW±22.5° 325 ° 6,7 °C 20,4 °C
01.09.2026 21:29 20,4 °C 40 % 1013,1 hPa 0,0 l/m² 0,1 km/h (0 Bft) NW 320 ° 6,3 °C 20,4 °C
01.09.2026 21:27 20,4 °C 40 % 1013,1 hPa 0,0 l/m² 0,3 km/h (0 Bft) NW 320 ° 6,3 °C 20,4 °C
01.09.2026 21:25 20,5 °C 39 % 1013,1 hPa 0,0 l/m² 3,0 km/h (1 Bft) NW 320 ° 6,1 °C 20,5 °C
01.09.2026 21:23 20,5 °C 38 % 1013,1 hPa 0,0 l/m² 3,0 km/h (1 Bft) NW 320 ° 5,7 °C 20,5 °C
01.09.2026 21:21 20,5 °C 38 % 1013,1 hPa 0,0 l/m² 0,4 km/h (0 Bft) NW 320 ° 5,7 °C 20,5 °C
01.09.2026 21:19 20,6 °C 37 % 1013,1 hPa 0,0 l/m² 0,7 km/h (0 Bft) NW 325 ° 5,4 °C 20,6 °C
01.09.2026 21:17 20,6 °C 37 % 1013,1 hPa 0,0 l/m² 7,2 km/h (2 Bft) N±45° 350 ° 5,4 °C 20,3 °C
01.09.2026 21:14 20,6 °C 37 % 1013,1 hPa 0,0 l/m² 7,2 km/h (2 Bft) N±45° 350 ° 5,4 °C 20,3 °C
01.09.2026 21:12 20,9 °C 35 % 1013,0 hPa 0,0 l/m² 0,0 km/h (0 Bft) NO 45 ° 4,9 °C 20,9 °C
01.09.2026 21:10 21,0 °C 34 % 1013,0 hPa 0,0 l/m² 0,0 km/h (0 Bft) NO 45 ° 4,5 °C 21,0 °C
01.09.2026 21:08 21,0 °C 34 % 1013,0 hPa 0,0 l/m² 0,0 km/h (0 Bft) NO 45 ° 4,5 °C 21,0 °C
01.09.2026 21:06 21,1 °C 34 % 1013,0 hPa 0,0 l/m² 0,0 km/h (0 Bft) NO 45 ° 4,6 °C 21,1 °C
01.09.2026 21:04 21,2 °C 33 % 1013,0 hPa 0,0 l/m² 0,0 km/h (0 Bft) NO 45 ° 4,3 °C 21,2 °C
01.09.2026 21:03 21,2 °C 33 % 1013,0 hPa 0,0 l/m² 0,0 km/h (0 Bft) NO 45 ° 4,3 °C 21,2 °C
01.09.2026 21:01 21,2 °C 33 % 1013,0 hPa 0,0 l/m² 0,0 km/h (0 Bft) NO 45 ° 4,3 °C 21,2 °C
01.09.2026 20:59 21,3 °C 32 % 1013,0 hPa 0,0 l/m² 0,0 km/h (0 Bft) NO 45 ° 3,9 °C 21,3 °C
01.09.2026 20:57 21,3 °C 32 % 1013,0 hPa 0,0 l/m² 0,0 km/h (0 Bft) NO 45 ° 3,9 °C 21,3 °C
01.09.2026 20:55 21,5 °C 31 % 1013,0 hPa 0,0 l/m² 0,0 km/h (0 Bft) NO 45 ° 3,7 °C 21,5 °C
01.09.2026 20:53 21,5 °C 31 % 1013,0 hPa 0,0 l/m² 0,0 km/h (0 Bft) NO 45 ° 3,7 °C 21,5 °C
01.09.2026 20:51 21,5 °C 31 % 1013,0 hPa 0,0 l/m² 0,0 km/h (0 Bft) NO 45 ° 3,7 °C 21,5 °C
01.09.2026 20:49 21,8 °C 30 % 1013,0 hPa 0,0 l/m² 0,0 km/h (0 Bft) NO 45 ° 3,5 °C 21,8 °C
01.09.2026 20:47 21,8 °C 30 % 1013,0 hPa 0,0 l/m² 0,0 km/h (0 Bft) NO 45 ° 3,5 °C 21,8 °C
01.09.2026 20:45 21,8 °C 30 % 1013,0 hPa 0,0 l/m² 0,0 km/h (0 Bft) NO 45 ° 3,5 °C 21,8 °C
01.09.2026 20:43 21,8 °C 30 % 1013,0 hPa 0,0 l/m² 0,0 km/h (0 Bft) NO 45 ° 3,5 °C 21,8 °C
_ Min-Zeit 06:08 18:57 00:01 - 00:01 - - 19:33 06:08
Minimum _ 15,2 °C 20 % 1011,1 hPa - 0,0 km/h (0 Bft) - - -0,4 °C 15,2 °C
_ Max-Zeit 15:13 06:21 08:41 00:01 14:05 - - 00:42 15:13
Maximum _ 26,0 °C 82 % 1014,2 hPa 0,0 l/m² 15,1 km/h
O-SO (3 Bft)
- - 13,8 °C 26,0 °C
Durchschnitt _ 20,2 °C 55 % 1012,8 hPa #0,0 l/m² 2,5 km/h (1 Bft) SO - 9,1 °C 20,1 °C